[[{"header":{"parameterUnit":"m.s-1","parameterCategory":1,"la1":30.2991,"la2":30.254,"lo1":-89.0895,"lo2":-89.0444,"dy":0.0017,"dx":0.0017,"nx":28,"ny":28,"refTime":"2024-08-16T21:00:00:Z","depth":0,"parameterNumber":2,"parameterNumberName":"U-component_of_WINDS"},"data":[0,0,0,0,0,0,0,0,0,0,0,0,0,0,0,0,0,0,0,0,0,0,0,0,0,0,0,0,0,0,0,0,0,0,0,0,0,0,0,0,0,0,0,0,0,0,0,0,0,0,0,0,0,0,0,0,0,0,1.7142,1.7143,0,1.725,1.7251,1.7252,1.7295,1.7295,1.7294,1.7294,1.7402,1.7405,1.7408,0,0,0,0,0,0,0,0,0,0,0,0,0,1.6967,1.697,1.7142,1.7143,1.7144,1.725,1.7251,1.7252,1.7295,1.7295,1.7294,1.7294,1.7401,1.7404,1.7408,0,0,0,0,0,0,0,0,0,0,0,0,0,1.7056,1.6971,1.7141,1.7178,1.7183,1.7249,1.7251,1.7253,1.7295,1.7295,1.7294,1.7294,1.7399,1.7404,1.7408,1.7446,0,0,1.7423,1.7425,0,0,0,0,0,0,0,0,1.705,1.7062,1.7171,1.7176,1.7181,1.7258,1.7229,1.7317,1.7295,1.7252,1.7294,1.7294,1.7354,1.7362,1.7384,1.7451,1.7455,1.7423,1.7426,1.7428,1.7429,0,0,0,0,0,0,0,1.7044,1.7057,1.7184,1.7173,1.7179,1.7188,1.72,1.7246,1.7304,1.7256,1.7259,1.7272,1.7357,1.7379,1.7386,1.7457,1.7423,1.7427,1.743,1.7432,1.7557,1.7558,0,0,0,0,0,0,1.7033,1.7052,1.7181,1.7188,1.7113,1.7191,1.7205,1.7234,1.7304,1.7314,1.7272,1.7273,1.7371,1.7381,1.739,1.7437,1.7428,1.7432,1.7435,1.7557,1.7557,1.7558,0,0,0,0,0,0,1.7029,1.7044,1.7177,1.7121,1.7138,1.7195,1.7227,1.7236,1.7259,1.7316,1.7326,1.7284,1.7371,1.7384,1.7431,1.7442,1.7434,1.7439,1.7556,1.7557,1.7558,1.7532,0,0,0,0,0,0,1.7024,1.7042,1.7058,1.7121,1.7141,1.7217,1.7228,1.7239,1.7267,1.727,1.733,1.734,1.7372,1.7424,1.7436,1.7448,1.7442,1.7555,1.7556,1.7557,1.7532,1.7531,1.7531,0,0,0,0,0,1.7017,1.7046,1.7059,1.7074,1.7163,1.7218,1.7229,1.7266,1.7268,1.7283,1.7319,1.7338,1.7438,1.7428,1.7442,1.7456,1.7555,1.7556,1.7557,1.7532,1.7532,1.7531,0,0,0,0,0,0,1.6982,1.7055,1.707,1.712,1.7162,1.7225,1.7246,1.7265,1.7307,1.7307,1.7351,1.7364,1.7407,1.7436,1.7424,1.7494,1.7498,1.7502,1.7474,1.7474,1.7473,1.7466,1.7446,0,0,0,0,0,1.6981,1.7021,1.7082,1.712,1.7141,1.7189,1.7215,1.7239,1.7284,1.7302,1.7342,1.7384,1.7425,1.7451,1.7492,1.7536,1.7549,1.7552,1.7551,1.7551,1.7554,1.7577,1.7579,1.7562,1.7562,1.7562,0,0,1.6978,1.7022,1.7045,1.7114,1.715,1.7189,1.7204,1.7245,1.7273,1.7308,1.7356,1.7386,1.7435,1.7481,1.7503,1.7506,1.7561,1.7552,1.7551,1.7555,1.7579,1.758,1.7582,1.7562,1.7562,1.7562,0,0,1.6992,1.703,1.7066,1.7101,1.7155,1.7187,1.7195,1.7254,1.7275,1.7324,1.735,1.7384,1.7454,1.7487,1.7514,1.7538,1.7555,1.7549,1.7548,1.757,1.7572,1.7573,1.7581,1.7583,1.7552,1.7552,1.7552,0,1.6981,1.7042,1.7081,1.7121,1.7149,1.7183,1.7218,1.725,1.7313,1.7332,1.7335,1.7422,1.7458,1.7511,1.7516,1.7537,1.7546,1.7543,1.7569,1.757,1.7572,1.758,1.7583,1.7551,1.7551,1.7551,1.7551,0,1.7025,1.7066,1.7088,1.715,1.7181,1.7218,1.7261,1.7288,1.7309,1.734,1.7387,1.7431,1.7481,1.7495,1.7516,1.755,1.7551,1.756,1.7565,1.7572,1.758,1.7583,1.7549,1.755,1.755,1.755,0,0,1.7021,1.7103,1.7111,1.7138,1.7199,1.7231,1.7268,1.7317,1.7339,1.7381,1.7412,1.7469,1.7478,1.7508,1.7533,1.7552,1.7567,1.756,1.7562,1.7559,1.7606,1.7598,1.7601,1.7579,1.758,1.758,1.7602,0,1.7043,1.7113,1.7149,1.7203,1.724,1.7271,1.7304,1.7343,1.7372,1.7407,1.7439,1.7479,1.7488,1.7506,1.7527,1.7561,1.7577,1.756,1.7607,1.7609,1.7594,1.7606,1.7598,1.7616,1.7605,1.7606,1.7606,0,1.7078,1.712,1.7178,1.7233,1.725,1.7279,1.7326,1.7359,1.7404,1.7424,1.7456,1.748,1.7518,1.7519,1.7572,1.7559,1.758,1.76,1.7601,1.7607,1.7608,1.7611,1.7623,1.7625,1.7611,1.7611,1.7611,0,1.7069,1.714,1.7184,1.7206,1.7272,1.7291,1.7318,1.7363,1.7389,1.743,1.7447,1.7491,1.7514,1.7547,1.7582,1.7579,1.763,1.7635,1.7647,1.7646,1.7656,1.7655,1.7671,1.767,1.767,1.767,1.767,0,1.7089,1.7123,1.718,1.7207,1.7245,1.7285,1.7321,1.7351,1.7389,1.7421,1.745,1.7479,1.7523,1.7556,1.7583,1.7622,1.7633,1.7648,1.7655,1.7646,1.7644,1.7661,1.766,1.7671,1.767,1.767,1.767,0,1.7085,1.7125,1.7175,1.7232,1.7247,1.7273,1.7321,1.7347,1.7377,1.7417,1.7428,1.7475,1.7516,1.7553,1.7608,1.7626,1.7665,1.7673,1.765,1.7654,1.7663,1.7662,1.7691,1.7696,1.7691,1.7691,1.7691,0,1.7096,1.7123,1.7183,1.7207,1.7234,1.7272,1.73,1.7339,1.7365,1.7417,1.7437,1.748,1.7517,1.758,1.7618,1.7659,1.7669,1.7676,1.7675,1.7665,1.7668,1.7667,1.7669,1.7676,1.7676,1.7675,1.7675,0,1.711,1.7128,1.7167,1.7212,1.7244,1.7282,1.732,1.7337,1.7383,1.7411,1.7454,1.7482,1.7537,1.7579,1.7624,1.7651,1.767,1.7675,1.768,1.7671,1.7656,1.7664,1.7648,1.7674,1.7675,1.7675,1.7675,1.7675,1.7113,1.7138,1.7184,1.7226,1.7259,1.7293,1.7321,1.7354,1.739,1.7439,1.7459,1.7502,1.7544,1.7607,1.7633,1.7666,1.767,1.7677,1.7679,1.768,1.7678,1.7651,1.7675,1.7675,1.7675,1.7675,1.7675,0,1.7128,1.7159,1.7197,1.725,1.7282,1.7298,1.7341,1.7366,1.7404,1.7442,1.7477,1.7525,1.7566,1.7606,1.7648,1.7667,1.7676,1.7676,1.7676,1.7681,1.7673,1.7664,1.7668,1.7668,1.7668,1.7668,1.7668,1.7668,1.714,1.7183,1.7206,1.7264,1.7294,1.7337,1.736,1.7391,1.7422,1.7474,1.7508,1.7535,1.7573,1.7618,1.7655,1.7666,1.768,1.7677,1.769,1.7682,1.7682,1.7682,1.7674,1.768,1.768,1.7696,1.7696,1.7696]},{"header":{"parameterUnit":"m.s-1","parameterCategory":1,"la1":30.2991,"la2":30.254,"lo1":-89.0895,"lo2":-89.0444,"dy":0.0017,"dx":0.0017,"nx":28,"ny":28,"refTime":"2024-08-16T21:00:00:Z","depth":0,"parameterNumber":3,"parameterNumberName":"V-component_of_WINDS"},"data":[0,0,0,0,0,0,0,0,0,0,0,0,0,0,0,0,0,0,0,0,0,0,0,0,0,0,0,0,0,0,0,0,0,0,0,0,0,0,0,0,0,0,0,0,0,0,0,0,0,0,0,0,0,0,0,0,0,0,4.9165,4.9165,0,4.9158,4.9158,4.9158,4.9096,4.9094,4.9093,4.9091,4.9084,4.9085,4.9086,0,0,0,0,0,0,0,0,0,0,0,0,0,4.9126,4.9127,4.9165,4.9165,4.9165,4.9158,4.9158,4.9158,4.9096,4.9094,4.9092,4.909,4.9083,4.9085,4.9086,0,0,0,0,0,0,0,0,0,0,0,0,0,4.9133,4.9127,4.9165,4.9133,4.913,4.9158,4.9158,4.9158,4.9096,4.9094,4.9092,4.909,4.9083,4.9084,4.9086,4.9144,0,0,4.9092,4.9093,0,0,0,0,0,0,0,0,4.9133,4.9135,4.9138,4.9136,4.9132,4.9125,4.9141,4.9153,4.9097,4.9109,4.9091,4.9088,4.9099,4.91,4.9103,4.9143,4.9143,4.9092,4.9093,4.9094,4.9095,0,0,0,0,0,0,0,4.9132,4.9134,4.9162,4.9138,4.9135,4.9119,4.9118,4.9143,4.9117,4.9108,4.9103,4.9103,4.9097,4.9102,4.9103,4.9143,4.9092,4.9094,4.9095,4.9096,4.9229,4.9232,0,0,0,0,0,0,4.9136,4.9134,4.9162,4.9162,4.9127,4.9122,4.912,4.913,4.9117,4.9113,4.9105,4.9101,4.91,4.9101,4.9102,4.9168,4.9094,4.9096,4.9097,4.9227,4.923,4.9233,0,0,0,0,0,0,4.9136,4.9139,4.9163,4.9147,4.9149,4.9125,4.9136,4.9131,4.9135,4.9115,4.911,4.9115,4.9098,4.91,4.9134,4.9167,4.9097,4.9098,4.9224,4.9228,4.9231,4.93,0,0,0,0,0,0,4.9135,4.9139,4.9161,4.9148,4.915,4.9195,4.9138,4.9132,4.9139,4.9132,4.9122,4.9118,4.9096,4.9131,4.9136,4.9168,4.91,4.9221,4.9226,4.923,4.9295,4.9306,4.9315,0,0,0,0,0,4.9133,4.9181,4.9162,4.9166,4.9176,4.9197,4.9198,4.9171,4.9142,4.9163,4.915,4.9119,4.9163,4.9135,4.914,4.9173,4.9219,4.9224,4.923,4.929,4.9304,4.9315,0,0,0,0,0,0,4.9198,4.9179,4.9158,4.9202,4.9202,4.9186,4.9212,4.9186,4.9194,4.9188,4.9155,4.9153,4.9192,4.9186,4.9156,4.9228,4.9185,4.9192,4.923,4.9243,4.9253,4.9253,4.9101,0,0,0,0,0,4.9218,4.9236,4.9218,4.9259,4.926,4.9236,4.9244,4.9224,4.9222,4.9221,4.921,4.921,4.9223,4.9233,4.9244,4.9294,4.9291,4.9319,4.933,4.9338,4.9344,4.9369,4.9382,4.9251,4.9251,4.925,0,0,4.9258,4.925,4.9263,4.9272,4.9269,4.9288,4.9236,4.9259,4.9273,4.9224,4.9256,4.9248,4.9245,4.9287,4.9306,4.9284,4.9379,4.9345,4.9352,4.9353,4.9376,4.9389,4.94,4.9254,4.9254,4.9253,0,0,4.9341,4.9337,4.937,4.9369,4.9365,4.9349,4.9357,4.9346,4.9339,4.937,4.9334,4.935,4.9374,4.9373,4.9376,4.946,4.9431,4.9464,4.9517,4.9542,4.9552,4.9561,4.959,4.9601,4.947,4.9471,4.9471,0,4.9391,4.9419,4.9391,4.9416,4.942,4.9378,4.9411,4.9411,4.9411,4.9415,4.9391,4.942,4.9415,4.9457,4.9477,4.9481,4.9489,4.9465,4.9553,4.9562,4.957,4.9597,4.9608,4.9475,4.9474,4.9474,4.9473,0,4.9481,4.9501,4.9528,4.9529,4.9537,4.9567,4.9543,4.9554,4.9534,4.952,4.9553,4.9545,4.9554,4.9563,4.9543,4.9601,4.9588,4.9559,4.9515,4.9587,4.9612,4.9622,4.948,4.9479,4.9478,4.9477,0,0,4.9603,4.9589,4.9599,4.9599,4.9592,4.9607,4.9634,4.9643,4.9653,4.9655,4.9677,4.9699,4.9672,4.9675,4.9655,4.9678,4.9743,4.9646,4.9646,4.9664,4.9806,4.9827,4.984,4.9725,4.9727,4.9728,4.9806,0,4.9682,4.9728,4.9703,4.9752,4.977,4.973,4.9754,4.9752,4.9741,4.9754,4.9742,4.9757,4.9722,4.9723,4.9744,4.9731,4.9771,4.9725,4.9744,4.9745,4.9745,4.9853,4.9875,4.9948,4.9816,4.9818,4.9819,0,4.978,4.9786,4.9837,4.9826,4.9833,4.9855,4.986,4.9874,4.9871,4.9862,4.9866,4.984,4.9866,4.9824,4.9859,4.9829,4.9835,4.983,4.9833,4.9832,4.9785,4.9854,4.9971,4.9982,4.9834,4.9833,4.9832,0,4.9863,4.9884,4.9917,4.9918,4.9907,4.9923,4.9919,4.9914,4.9921,4.9927,4.9931,4.994,4.9944,4.9951,4.9929,4.9901,4.9967,4.9923,4.9959,4.996,4.9974,4.9973,5.0092,4.998,4.998,4.998,4.998,0,4.9953,4.9985,4.9954,4.9974,5.0009,4.998,5.0016,5.0008,5.0004,5.0022,4.9988,5.0006,4.9976,4.999,4.9973,5.0004,5.0007,4.9999,4.9994,5.0002,5.0002,5.0004,4.9998,4.9983,4.9982,4.9982,4.9981,0,5.0051,5.0031,5.0064,5.0051,5.0048,5.0075,5.0063,5.0081,5.0068,5.0091,5.0095,5.0074,5.009,5.0068,5.0082,5.007,5.0113,5.01,5.0113,5.0109,5.0146,5.0143,5.027,5.0285,5.0165,5.0166,5.0167,0,5.0109,5.0132,5.0122,5.0132,5.013,5.0145,5.0152,5.0126,5.0134,5.0133,5.0151,5.0164,5.0172,5.0199,5.0185,5.0195,5.0182,5.0226,5.0183,5.019,5.0181,5.0179,5.0181,5.0234,5.0236,5.0237,5.0238,0,5.0213,5.0202,5.0213,5.0221,5.0231,5.0236,5.0238,5.0248,5.022,5.0231,5.0246,5.0253,5.0267,5.0279,5.0286,5.0281,5.0255,5.0252,5.026,5.0267,5.0273,5.027,5.0136,5.0248,5.0247,5.0246,5.0246,5.0245,5.0292,5.0311,5.0307,5.032,5.0319,5.0323,5.0339,5.0328,5.034,5.0349,5.0333,5.0352,5.0349,5.0355,5.0354,5.0368,5.0349,5.0362,5.0365,5.0368,5.0373,5.0272,5.037,5.0369,5.0369,5.0369,5.0368,0,5.0394,5.0389,5.0402,5.0406,5.0417,5.0392,5.0393,5.0404,5.0421,5.0421,5.043,5.0447,5.046,5.0447,5.0457,5.0471,5.0459,5.0475,5.0473,5.0472,5.039,5.0381,5.0484,5.0484,5.0484,5.0484,5.0484,5.0484,5.0448,5.0479,5.0468,5.0498,5.0493,5.0511,5.0514,5.0517,5.0516,5.0537,5.0547,5.0539,5.0534,5.0543,5.0553,5.0549,5.0554,5.0574,5.0565,5.0489,5.0478,5.0467,5.0458,5.0575,5.0575,5.0646,5.0646,5.0647]}]]